Location: Moscow
(30.9132°N, 94.8252°W)
Time: 06:06:28
(UTC+00:00)

OAO 3 Rocket - Pass Details

Date: 15 November 2025
Orbit: 613 x 662 km, 35.0° (Epoch: 04 December)

Event Time Altitude Azimuth Distance (km) Brightness Sun altitude
Rises 00:40:39 0° 266° (W) 2,907 8.2 -17.0°
Reaches altitude 10° 00:43:02 10° 270° (W) 1,992 6.9 -17.5°
Maximum altitude 00:47:36 58° 350° (N) 721 3.3 -18.5°
Enters shadow 00:49:08 38° 50° (NE) 951 3.5 -18.8°
